Miscellaneous Local Product
Issued by NWS Hastings, NE

Home | Current Version | Previous Version | Text Only | Print | Product List | Glossary Off
Versions: 1 2 3 4 5 6 7 8 9 10 11 12 13 14 15 16 17 18 19 20 21 22 23 24 25 26 27 28 29 30 31 32 33 34 35 36 37 38 39 40 41 42 43 44 45 46 47 48 49 50

832
AXUS43 KGID 211502
MISGRI

GID CWA HOURLY WEATHER ROUNDUP
NATIONAL WEATHER SERVICE HASTINGS NE
1000 AM CDT THU SEP 21 2017

NOTE: "FAIR" INDICATES FEW OR NO CLOUDS BELOW 12,000 FEET WITH NO
SIGNIFICANT WEATHER AND/OR OBSTRUCTIONS TO VISIBILITY.

...SOUTH CENTRAL NEBRASKA...

CITY           SKY/WX    TMP DP  RH WIND       PRES   REMARKS
GRAND ISLAND   CLOUDY    66  64  93 S12       29.81F
HASTINGS       SUNNY     70  62  76 S8        29.82S
KEARNEY        SUNNY     66  59  78 SE9       29.81S
ORD            SUNNY     64  55  72 SE5       29.79F
YORK           PTSUNNY   72  68  88 S10       29.83S
AURORA         CLOUDY    69  67  94 S12       29.81F
LEXINGTON      SUNNY     65  56  72 SE6       29.79F
HOLDREGE       SUNNY     68  58  70 S10       29.80S
HEBRON         SUNNY     79  70  74 S9        29.82S

...NEBRASKA PANHANDLE...

CITY           SKY/WX    TMP DP  RH WIND       PRES   REMARKS
CHADRON        SUNNY     64  41  42 S18G25    29.69S
ALLIANCE       SUNNY     58  46  64 S16       29.76R
SCOTTSBLUFF    CLOUDY    57  42  57 E12       29.74F
SIDNEY         SUNNY     63  41  44 S8        29.77S

...WESTERN AND NORTH CENTRAL NEBRASKA...

CITY           SKY/WX    TMP DP  RH WIND       PRES   REMARKS
VALENTINE      SUNNY     67  55  65 S20       29.76F
AINSWORTH      SUNNY     65  56  72 SE14      29.78F
ONEILL         SUNNY     65  57  75 SE13      29.81F
BROKEN BOW     SUNNY     62  54  74 SE7       29.79F
IMPERIAL       SUNNY     61  46  57 SE9       29.76F
NORTH PLATTE   SUNNY     61  54  77 E12       29.78F
MCCOOK         SUNNY     65  53  65 SE12      29.77F

...EASTERN NEBRASKA...

CITY           SKY/WX    TMP DP  RH WIND       PRES   REMARKS
NORFOLK        CLOUDY    67  62  84 SE12      29.82F
SO SIOUX CITY  MOSUNNY   69  65  86 SE12      29.84F
TEKAMAH        MOSUNNY   74  66  76 SE9       29.85S
COLUMBUS       CLOUDY    69  63  81 E7        29.83F
ALBION         CLOUDY    64  61  88 SE6       29.82S
OMAHA EPPLEY   MOSUNNY   76  67  73 SE14      29.86S
OFFUTT AFB     SUNNY     77  69  75 SE16      29.85F
MILLARD        MOSUNNY   77  70  78 SE12      29.85S
LINCOLN        SUNNY     78  70  76 S13       29.84S
NEBRASKA CITY  PTSUNNY   77  74  92 SE10      29.87S
BEATRICE       SUNNY     80  72  75 S13G20    29.84R
FALLS CITY     PTSUNNY   82  72  71 S15G22    29.86S

...NORTHERN KANSAS...

CITY           SKY/WX    TMP DP  RH WIND       PRES   REMARKS
GOODLAND       SUNNY     67  44  43 S13       29.77R
HILL CITY      SUNNY     75  52  44 S8        29.79F
NORTON         SUNNY     73  48  40 SE8       29.77F
PHILLIPSBURG   SUNNY     68  55  64 E6        29.80R
SMITH CENTER   SUNNY     72  59  64 SE10      29.81S
HAYS           SUNNY     74  62  66 S12       29.81F
RUSSELL        SUNNY     78  68  71 S15       29.80S
CONCORDIA      SUNNY     78  73  84 S15       29.82S
SALINA         SUNNY     84  71  65 S16       29.82R
TOPEKA         SUNNY     82  73  74 S12       29.89R



USA.gov is the U.S. government's official web portal to all federal, state and local government web resources and services.